When you browse on this site, cookies collect data to enhance your experience and personalize the content and advertising you see.
Visit our Privacy Policy to learn more. By continuing to use the site, you agree to this use of cookies and data.
  • In Slovakia
  • List of Countries
  • For 7 days
  • Water Temperature
  • Satellite Maps
  • Weather Map
  • Weather Widgets
  • user-avatar
    Login

    Hourly Weather Viedma

    Today, 19 November, Monday

    Time Temperature Precipitation Wind Pressure Humidity
    00:00 +15°C° 0 mm 5 mps 755 mmHg 44%
    01:00 +15°C° 0 mm 5 mps 755 mmHg 45%
    02:00 +15°C° 0 mm 5 mps 755 mmHg 45%
    03:00 +15°C° 0 mm 6 mps 755 mmHg 45%
    04:00 +15°C° 0 mm 6 mps 754 mmHg 45%
    05:00 +15°C° 0 mm 7 mps 754 mmHg 45%
    06:00 +17°C° 0 mm 7 mps 754 mmHg 39%
    07:00 +20°C° 0 mm 8 mps 754 mmHg 34%
    08:00 +22°C° 0 mm 8 mps 754 mmHg 29%
    09:00 +24°C° 0 mm 9 mps 753 mmHg 26%
    10:00 +27°C° 0 mm 9 mps 753 mmHg 24%
    11:00 +28°C° 0 mm 9 mps 752 mmHg 22%
    12:00 +29°C° 0 mm 9 mps 752 mmHg 22%
    13:00 +31°C° 0 mm 9 mps 751 mmHg 22%
    14:00 +31°C° 0 mm 9 mps 751 mmHg 22%
    15:00 +31°C° 0 mm 8 mps 750 mmHg 22%
    16:00 +32°C° 0 mm 8 mps 750 mmHg 21%
    17:00 +32°C° 0 mm 7 mps 749 mmHg 21%
    18:00 +29°C° 0 mm 7 mps 749 mmHg 22%
    19:00 +28°C° 0 mm 6 mps 749 mmHg 23%
    20:00 +27°C° 0 mm 5 mps 749 mmHg 24%
    21:00 +26°C° 0 mm 6 mps 750 mmHg 25%
    22:00 +24°C° 0 mm 6 mps 750 mmHg 26%
    23:00 +24°C° 0 mm 6 mps 750 mmHg 27%

    Tomorrow, 20 November, Tuesday

    Time Temperature Precipitation Wind Pressure Humidity
    00:00 +23°C° 0 mm 6 mps 750 mmHg 30%
    01:00 +22°C° 0 mm 6 mps 751 mmHg 33%
    02:00 +21°C° 0 mm 5 mps 751 mmHg 36%
    03:00 +20°C° 0 mm 5 mps 751 mmHg 40%
    04:00 +20°C° 0 mm 4 mps 752 mmHg 45%
    05:00 +19°C° 0 mm 3 mps 752 mmHg 50%
    06:00 +21°C° 0 mm 3 mps 752 mmHg 44%
    07:00 +22°C° 0 mm 3 mps 753 mmHg 38%
    08:00 +25°C° 0 mm 3 mps 753 mmHg 31%
    09:00 +26°C° 0 mm 3 mps 753 mmHg 30%
    10:00 +27°C° 0 mm 2 mps 753 mmHg 28%
    11:00 +28°C° 0 mm 2 mps 753 mmHg 27%
    12:00 +29°C° 0 mm 4 mps 752 mmHg 25%
    13:00 +30°C° 0 mm 5 mps 752 mmHg 23%
    14:00 +33°C° 0 mm 7 mps 751 mmHg 21%
    15:00 +33°C° 0 mm 7 mps 750 mmHg 20%
    16:00 +33°C° 0 mm 8 mps 750 mmHg 19%
    17:00 +32°C° 0 mm 8 mps 749 mmHg 19%
    18:00 +30°C° 0 mm 7 mps 749 mmHg 20%
    19:00 +29°C° 0 mm 6 mps 749 mmHg 21%
    20:00 +27°C° 0 mm 6 mps 749 mmHg 23%
    21:00 +27°C° 0 mm 6 mps 749 mmHg 22%
    22:00 +27°C° 0 mm 6 mps 749 mmHg 20%
    23:00 +27°C° 0 mm 6 mps 749 mmHg 19%

    Day after tomorrow, 21 November, Wednesday

    Time Temperature Precipitation Wind Pressure Humidity
    00:00 +27°C° 0 mm 7 mps 748 mmHg 21%
    01:00 +26°C° 0 mm 7 mps 748 mmHg 22%
    02:00 +26°C° 0 mm 7 mps 748 mmHg 24%
    03:00 +24°C° 0 mm 7 mps 748 mmHg 26%
    04:00 +23°C° 0 mm 7 mps 749 mmHg 28%
    05:00 +22°C° 0 mm 7 mps 749 mmHg 30%
    06:00 +23°C° 0 mm 8 mps 749 mmHg 31%
    07:00 +24°C° 0 mm 8 mps 749 mmHg 33%
    08:00 +26°C° 0 mm 9 mps 749 mmHg 34%
    09:00 +28°C° 0 mm 9 mps 749 mmHg 33%
    10:00 +29°C° 0 mm 10 mps 749 mmHg 32%
    11:00 +31°C° 0 mm 10 mps 749 mmHg 31%
    12:00 +31°C° 0 mm 10 mps 748 mmHg 31%
    13:00 +32°C° 0 mm 10 mps 748 mmHg 30%
    14:00 +33°C° 0 mm 10 mps 747 mmHg 29%
    15:00 +32°C° 0 mm 9 mps 747 mmHg 30%
    16:00 +32°C° 0 mm 9 mps 746 mmHg 31%
    17:00 +31°C° 0 mm 8 mps 746 mmHg 33%
    18:00 +27°C° 0.2 mm 9 mps 747 mmHg 42%
    19:00 +24°C° 0.2 mm 9 mps 748 mmHg 51%
    20:00 +21°C° 0.2 mm 10 mps 749 mmHg 61%
    21:00 +17°C° 0.4 mm 10 mps 751 mmHg 62%
    22:00 +14°C° 0.4 mm 11 mps 752 mmHg 63%
    23:00 +12°C° 0.4 mm 11 mps 754 mmHg 65%

    22 November, Thursday

    Time Temperature Precipitation Wind Pressure Humidity
    00:00 +11°C° 0.4 mm 10 mps 755 mmHg 66%
    01:00 +11°C° 0.4 mm 9 mps 755 mmHg 68%
    02:00 +11°C° 0.4 mm 8 mps 756 mmHg 69%
    03:00 +11°C° 0 mm 7 mps 757 mmHg 67%
    04:00 +11°C° 0 mm 6 mps 758 mmHg 64%
    05:00 +12°C° 0 mm 5 mps 759 mmHg 62%
    06:00 +13°C° 0 mm 5 mps 759 mmHg 56%
    07:00 +15°C° 0 mm 5 mps 760 mmHg 50%
    08:00 +17°C° 0 mm 4 mps 761 mmHg 44%
    09:00 +18°C° 0 mm 4 mps 762 mmHg 39%
    10:00 +19°C° 0 mm 4 mps 762 mmHg 35%
    11:00 +20°C° 0 mm 3 mps 762 mmHg 30%
    12:00 +20°C° 0 mm 3 mps 762 mmHg 28%
    13:00 +21°C° 0 mm 3 mps 762 mmHg 26%
    14:00 +21°C° 0 mm 4 mps 763 mmHg 25%
    15:00 +21°C° 0 mm 4 mps 762 mmHg 25%
    16:00 +20°C° 0 mm 4 mps 762 mmHg 26%
    17:00 +20°C° 0 mm 4 mps 762 mmHg 27%
    18:00 +19°C° 0 mm 4 mps 763 mmHg 32%
    19:00 +17°C° 0 mm 4 mps 763 mmHg 36%
    20:00 +15°C° 0 mm 4 mps 763 mmHg 41%
    21:00 +14°C° 0 mm 5 mps 764 mmHg 43%
    22:00 +14°C° 0 mm 5 mps 764 mmHg 46%
    23:00 +13°C° 0 mm 6 mps 764 mmHg 48%

    23 November, Friday

    Time Temperature Precipitation Wind Pressure Humidity
    00:00 +13°C° 0 mm 6 mps 764 mmHg 50%
    01:00 +11°C° 0 mm 6 mps 763 mmHg 52%
    02:00 +11°C° 0 mm 6 mps 763 mmHg 54%
    03:00 +11°C° 0 mm 6 mps 763 mmHg 53%
    04:00 +10°C° 0 mm 6 mps 763 mmHg 52%
    05:00 +10°C° 0 mm 6 mps 763 mmHg 52%
    06:00 +13°C° 0 mm 6 mps 764 mmHg 44%
    07:00 +14°C° 0 mm 7 mps 764 mmHg 37%
    08:00 +16°C° 0 mm 7 mps 764 mmHg 30%
    09:00 +18°C° 0 mm 7 mps 764 mmHg 27%
    10:00 +21°C° 0 mm 6 mps 763 mmHg 23%
    11:00 +22°C° 0 mm 6 mps 763 mmHg 20%
    12:00 +23°C° 0 mm 6 mps 762 mmHg 20%
    13:00 +23°C° 0 mm 6 mps 761 mmHg 21%
    14:00 +24°C° 0 mm 6 mps 761 mmHg 21%
    15:00 +23°C° 0 mm 7 mps 760 mmHg 24%
    16:00 +22°C° 0 mm 9 mps 760 mmHg 27%
    17:00 +21°C° 0 mm 10 mps 760 mmHg 29%
    18:00 +18°C° 0 mm 9 mps 760 mmHg 35%
    19:00 +16°C° 0 mm 9 mps 760 mmHg 40%
    20:00 +13°C° 0 mm 9 mps 760 mmHg 45%
    21:00 +13°C° 0 mm 9 mps 760 mmHg 49%
    22:00 +13°C° 0 mm 9 mps 760 mmHg 52%
    23:00 +12°C° 0 mm 9 mps 760 mmHg 55%

    24 November, Saturday

    Time Temperature Precipitation Wind Pressure Humidity
    00:00 +12°C° 0 mm 9 mps 759 mmHg 59%
    01:00 +12°C° 0 mm 9 mps 759 mmHg 63%
    02:00 +12°C° 0 mm 8 mps 758 mmHg 66%
    03:00 +12°C° 0 mm 8 mps 758 mmHg 67%
    04:00 +12°C° 0 mm 7 mps 758 mmHg 68%
    05:00 +12°C° 0 mm 7 mps 758 mmHg 68%
    06:00 +15°C° 0 mm 7 mps 758 mmHg 63%
    07:00 +16°C° 0 mm 8 mps 758 mmHg 57%
    08:00 +18°C° 0 mm 9 mps 758 mmHg 51%
    09:00 +20°C° 0 mm 8 mps 757 mmHg 47%
    10:00 +22°C° 0 mm 8 mps 757 mmHg 43%
    11:00 +24°C° 0 mm 8 mps 756 mmHg 38%
    12:00 +24°C° 0 mm 8 mps 756 mmHg 38%
    13:00 +26°C° 0 mm 8 mps 755 mmHg 38%
    14:00 +26°C° 0 mm 8 mps 755 mmHg 38%
    15:00 +26°C° 0 mm 7 mps 755 mmHg 39%
    16:00 +26°C° 0 mm 7 mps 754 mmHg 40%
    17:00 +26°C° 0 mm 7 mps 754 mmHg 41%
    18:00 +24°C° 0 mm 6 mps 754 mmHg 44%
    19:00 +22°C° 0 mm 6 mps 755 mmHg 48%
    20:00 +21°C° 0 mm 6 mps 755 mmHg 52%
    21:00 +20°C° 0 mm 5 mps 755 mmHg 55%
    22:00 +20°C° 0 mm 5 mps 756 mmHg 58%
    23:00 +19°C° 0 mm 4 mps 756 mmHg 61%
    Show more